STARLINK-1879 (47164 NORAD) Tracking and Keplerian Element Data
This shows tracking and keplerian element data for the satellite.
Feedback or suggestion? Click here.
Element | Value |
Catalog | 47164 |
Name | STARLINK-1879 |
Epoch Orbit | 180 |
Epoch Day | 99.91667824 |
Epoch Year | 2021 |
RAAN | 58.6615 |
Inclination | 53.0523 |
Eccentricity | 0.0001502 |
Argument of Perigee | 58.9238 |
Mean Anonmoly | 350.2323 |
Mean Motion | 15.07372081 |
Decay Rate | -0.0049729 |
L1 | 1 47164U 20088AU 21099.91667824 -.00497290 00000-0 -34472-1 0 9998 |
L2 | 2 47164 53.0523 58.6615 0001502 58.9238 350.2323 15.07372081 1807 |
Live tracking and technical data element details for STARLINK-1879 (NORAD 47164). STARLINK-1879 can be tracked NOW for your location showing map with azimuth and elevation plus other details from your city location.
Track the satellite on the map from your city or location and see movement details for azimuth, elevation, latitude, longitude, range, height, and movement on the map or in text.
IsCatalogInMostPopularTable: catalog: 47164, numindb: 49
Update: records affected: 1
GetName: 47164 STARLINK-1879
Hit Count: updated at: Sat, 10 Apr 2021 19:32:07 GMT